Tracking 19832 objects as of 25-Aug-2019
HD Live streaming from Space Station
objects crossing your sky now

AMC-5 (GE-5)

Track AMC-5 (GE-5) now!
AMC-5 (GE-5) is classified as:


NORAD ID: 25516
Int'l Code: 1998-063B
Perigee: 36,046.4 km
Apogee: 36,072.5 km
Inclination: 6.8 °
Period: 1,449.7 minutes
Semi major axis: 42430 km
RCS: 9.3322 m2 (large)
Launch date: October 28, 1998
Source: SOCIETE EUROPEENNE DES SATELLITES (SES)
Launch site: FRENCH GUIANA (FRGUI)

Broadband internet, business television; 16 Ku-band; CONUS
aabbcc
Your satellite tracking list
Your tracking list is empty




NASA's NSSDC Master Catalog

Two Line Element Set (TLE):
1 25516U 98063B   19236.64037031 +.00000082 +00000-0 +00000-0 0  9990
2 25516 006.7857 056.3280 0003071 001.6290 010.0964 00.99331489076118
Source of the keplerian elements: AFSPC